This is the latest recevied weather packets stored in our database for station/object KD9CCP. If no packets are shown the sender has not sent any weather packets the latest 10 day(s).
| Time | Temp. | Humidity | Pressure | Rain* | Wind** | Luminosity | Snow |
|---|---|---|---|---|---|---|---|
| 1777582490 | 2.78° C | 83% | 1017.8 hPa | 0 mm | - | 21 W/m² | - |
| 1777582185 | 2.78° C | 82% | 1017.7 hPa | 0 mm | - | 39 W/m² | - |
| 1777581884 | 2.78° C | 83% | 1017.6 hPa | 0 mm | - | 42 W/m² | - |
| 1777581578 | 2.78° C | 83% | 1017.7 hPa | 0 mm | - | 27 W/m² | - |
| 1777581273 | 2.78° C | 83% | 1017.7 hPa | 0 mm | - | 34 W/m² | - |
| 1777580969 | 3.33° C | 83% | 1017.7 hPa | 0 mm | - | 41 W/m² | - |
| 1777580668 | 2.78° C | 84% | 1017.8 hPa | 0 mm | - | 42 W/m² | - |
| 1777580364 | 2.78° C | 84% | 1017.9 hPa | 0 mm | - | 41 W/m² | - |
| 1777580061 | 2.78° C | 86% | 1017.8 hPa | 0 mm | - | 41 W/m² | - |
| 1777579757 | 2.78° C | 85% | 1017.9 hPa | 0 mm | - | 49 W/m² | - |
| 1777579455 | 3.33° C | 85% | 1017.8 hPa | 0 mm | - | 50 W/m² | - |
| 1777579150 | 3.33° C | 85% | 1017.8 hPa | 0 mm | - | 69 W/m² | - |
| 1777578845 | 3.33° C | 86% | 1017.7 hPa | 0 mm | - | 90 W/m² | - |
| 1777578541 | 2.78° C | 88% | 1017.5 hPa | 0 mm | - | 89 W/m² | - |
| 1777578236 | 2.78° C | 88% | 1017.8 hPa | 0 mm | - | 52 W/m² | - |
| 1777577931 | 2.78° C | 89% | 1017.7 hPa | 0 mm | - | 63 W/m² | - |
| 1777577627 | 2.78° C | 90% | 1017.8 hPa | 0 mm | - | 78 W/m² | - |
| 1777577325 | 2.78° C | 92% | 1017.7 hPa | 0 mm | - | 69 W/m² | - |
| 1777577020 | 2.22° C | 92% | 1017.7 hPa | 0 mm | - | 77 W/m² | - |
| 1777576718 | 2.22° C | 93% | 1017.8 hPa | 0 mm | - | 68 W/m² | - |
| 1777576416 | 1.67° C | 92% | 1017.6 hPa | 0 mm | - | 50 W/m² | - |
| 1777576113 | 2.22° C | 91% | 1017.9 hPa | 0 mm | - | 40 W/m² | - |
| 1777575808 | 2.78° C | 87% | 1017.8 hPa | 0 mm | - | 27 W/m² | - |
| 1777575506 | 2.78° C | 84% | 1017.7 hPa | 0 mm | - | 32 W/m² | - |
| 1777575201 | 2.78° C | 84% | 1017.9 hPa | 0 mm | - | 38 W/m² | - |
* Rain latest hour (hover to see other rain measurements)
** Current wind speed in m/s (hover to see current wind gust speed)